[[{"header":{"parameterUnit":"m.s-1","parameterCategory":1,"la1":30.2991,"la2":30.254,"lo1":-89.0895,"lo2":-89.0444,"dy":0.0017,"dx":0.0017,"nx":28,"ny":28,"refTime":"2024-03-04T09:00:00:Z","depth":0,"parameterNumber":2,"parameterNumberName":"U-component_of_WINDS"},"data":[0,0,0,0,0,0,0,0,0,0,0,0,0,0,0,0,0,0,0,0,0,0,0,0,0,0,0,0,0,0,0,0,0,0,0,0,0,0,0,0,0,0,0,0,0,0,0,0,0,0,0,0,0,0,0,0,0,0,-5.9186,-5.9186,0,-5.9169,-5.9169,-5.9169,-5.9064,-5.9061,-5.9059,-5.9056,-5.9039,-5.9041,-5.9043,0,0,0,0,0,0,0,0,0,0,0,0,0,-5.9128,-5.913,-5.9186,-5.9186,-5.9186,-5.9169,-5.9169,-5.9169,-5.9064,-5.9061,-5.9058,-5.9055,-5.9038,-5.9041,-5.9043,0,0,0,0,0,0,0,0,0,0,0,0,0,-5.9137,-5.913,-5.9186,-5.9131,-5.9126,-5.9169,-5.9169,-5.9169,-5.9065,-5.9061,-5.9057,-5.9054,-5.9038,-5.904,-5.9043,-5.9137,0,0,-5.9052,-5.9053,0,0,0,0,0,0,0,0,-5.9136,-5.9139,-5.914,-5.9135,-5.913,-5.9115,-5.9142,-5.9158,-5.9066,-5.9088,-5.9056,-5.9052,-5.9067,-5.9067,-5.9073,-5.9136,-5.9135,-5.9052,-5.9054,-5.9055,-5.9056,0,0,0,0,0,0,0,-5.9136,-5.9139,-5.9179,-5.914,-5.9134,-5.9108,-5.9105,-5.9145,-5.9099,-5.9086,-5.9078,-5.9078,-5.9064,-5.907,-5.9071,-5.9135,-5.9052,-5.9055,-5.9056,-5.9057,-5.9276,-5.928,0,0,0,0,0,0,-5.9143,-5.9139,-5.918,-5.9179,-5.9124,-5.9112,-5.9109,-5.9123,-5.9099,-5.9091,-5.9081,-5.9073,-5.9067,-5.9068,-5.907,-5.9178,-5.9055,-5.9058,-5.9059,-5.9272,-5.9277,-5.9281,0,0,0,0,0,0,-5.9142,-5.9148,-5.918,-5.9157,-5.9159,-5.9117,-5.9134,-5.9125,-5.9131,-5.9095,-5.9086,-5.9096,-5.9064,-5.9066,-5.9121,-5.9176,-5.9059,-5.9062,-5.9267,-5.9273,-5.9279,-5.9394,0,0,0,0,0,0,-5.9141,-5.9148,-5.9182,-5.9159,-5.9161,-5.9231,-5.9138,-5.9127,-5.9136,-5.9126,-5.9106,-5.91,-5.9061,-5.9118,-5.9124,-5.9177,-5.9064,-5.9262,-5.927,-5.9277,-5.9385,-5.9403,-5.9419,0,0,0,0,0,-5.9139,-5.9215,-5.9185,-5.919,-5.9203,-5.9235,-5.9236,-5.919,-5.9141,-5.9176,-5.9153,-5.91,-5.917,-5.9124,-5.9131,-5.9186,-5.9258,-5.9267,-5.9276,-5.9377,-5.94,-5.9418,0,0,0,0,0,0,-5.9245,-5.9211,-5.9177,-5.9247,-5.9245,-5.9217,-5.9259,-5.9216,-5.9227,-5.9216,-5.916,-5.9156,-5.9219,-5.9209,-5.9158,-5.9276,-5.9205,-5.9216,-5.9279,-5.93,-5.9317,-5.9317,-5.9066,0,0,0,0,0,-5.9278,-5.9306,-5.9274,-5.934,-5.9341,-5.9301,-5.9313,-5.9278,-5.9273,-5.9271,-5.9252,-5.925,-5.9271,-5.9286,-5.9303,-5.9385,-5.9378,-5.9426,-5.9443,-5.9457,-5.9466,-5.9508,-5.9528,-5.9311,-5.9311,-5.9311,0,0,-5.9343,-5.9328,-5.9349,-5.9361,-5.9355,-5.9385,-5.93,-5.9336,-5.9358,-5.9277,-5.9326,-5.9314,-5.9307,-5.9376,-5.9405,-5.9368,-5.9525,-5.9469,-5.948,-5.9481,-5.9519,-5.954,-5.9558,-5.9317,-5.9316,-5.9315,0,0,-5.9477,-5.947,-5.9523,-5.9519,-5.9512,-5.9485,-5.9499,-5.9478,-5.9466,-5.9516,-5.9456,-5.9483,-5.952,-5.9518,-5.9522,-5.966,-5.9611,-5.9668,-5.9754,-5.9796,-5.9813,-5.9827,-5.9875,-5.9893,-5.9677,-5.9678,-5.9678,0,-5.9559,-5.9602,-5.9556,-5.9596,-5.9603,-5.9533,-5.9586,-5.9586,-5.9584,-5.9591,-5.9551,-5.9598,-5.9588,-5.9655,-5.9689,-5.9695,-5.9708,-5.9667,-5.9814,-5.9829,-5.9842,-5.9886,-5.9904,-5.9684,-5.9684,-5.9683,-5.9682,0,-5.9703,-5.9735,-5.9779,-5.978,-5.9793,-5.984,-5.98,-5.9819,-5.9785,-5.9764,-5.9816,-5.9803,-5.9817,-5.9831,-5.9798,-5.9894,-5.9871,-5.9824,-5.9751,-5.987,-5.991,-5.9927,-5.9694,-5.9692,-5.969,-5.9688,0,0,-5.9898,-5.9876,-5.9893,-5.9893,-5.9882,-5.9905,-5.995,-5.9964,-5.9981,-5.9984,-6.0019,-6.0055,-6.0011,-6.0016,-5.9983,-6.002,-6.0129,-5.9968,-5.9967,-5.9996,-6.0232,-6.0265,-6.0285,-6.0098,-6.0102,-6.0104,-6.0232,0,-6.0025,-6.0099,-6.006,-6.0139,-6.0168,-6.0104,-6.0143,-6.0141,-6.0123,-6.0145,-6.0125,-6.015,-6.0092,-6.0095,-6.0129,-6.0108,-6.0175,-6.0099,-6.0129,-6.0131,-6.0129,-6.0307,-6.0341,-6.0462,-6.0247,-6.025,-6.0252,0,-6.0181,-6.0192,-6.0274,-6.0259,-6.0269,-6.0305,-6.0315,-6.0338,-6.0335,-6.0319,-6.0327,-6.0285,-6.0328,-6.026,-6.0319,-6.0268,-6.0279,-6.0271,-6.0275,-6.0273,-6.0196,-6.0307,-6.05,-6.0517,-6.0277,-6.0275,-6.0273,0,-6.0312,-6.0348,-6.0401,-6.0404,-6.0388,-6.0415,-6.041,-6.0403,-6.0415,-6.0425,-6.0431,-6.0447,-6.0454,-6.0468,-6.0432,-6.0386,-6.0495,-6.0423,-6.0482,-6.0483,-6.0503,-6.0502,-6.0698,-6.0518,-6.0517,-6.0517,-6.0517,0,-6.0455,-6.0507,-6.046,-6.0493,-6.055,-6.0506,-6.0564,-6.0552,-6.0548,-6.0577,-6.0525,-6.0553,-6.0506,-6.0531,-6.0504,-6.0555,-6.056,-6.0548,-6.0539,-6.055,-6.0551,-6.0553,-6.0543,-6.0522,-6.0521,-6.052,-6.0519,0,-6.0609,-6.058,-6.0634,-6.0616,-6.0613,-6.0656,-6.064,-6.067,-6.065,-6.0688,-6.0695,-6.0664,-6.069,-6.0657,-6.068,-6.0662,-6.0732,-6.0713,-6.0732,-6.0725,-6.0784,-6.0778,-6.0985,-6.1009,-6.0817,-6.0819,-6.0821,0,-6.07,-6.0739,-6.0726,-6.0742,-6.074,-6.0768,-6.078,-6.074,-6.0755,-6.0756,-6.0786,-6.0808,-6.0822,-6.0868,-6.0847,-6.0865,-6.0843,-6.0915,-6.0845,-6.0855,-6.0841,-6.0837,-6.084,-6.0928,-6.093,-6.0932,-6.0933,0,-6.0864,-6.0848,-6.0868,-6.0884,-6.09,-6.091,-6.0916,-6.0933,-6.0891,-6.0911,-6.0938,-6.095,-6.0974,-6.0996,-6.1009,-6.1004,-6.0961,-6.0957,-6.097,-6.098,-6.0988,-6.0982,-6.0767,-6.0951,-6.0949,-6.0948,-6.0947,-6.0946,-6.0986,-6.1018,-6.1014,-6.1038,-6.104,-6.1048,-6.1075,-6.106,-6.1081,-6.1098,-6.1075,-6.1108,-6.1106,-6.1118,-6.1119,-6.1144,-6.1113,-6.1133,-6.1138,-6.1143,-6.115,-6.0989,-6.1146,-6.1146,-6.1145,-6.1145,-6.1145,0,-6.1144,-6.114,-6.1163,-6.1174,-6.1194,-6.1156,-6.1162,-6.118,-6.121,-6.1212,-6.1229,-6.126,-6.1283,-6.1266,-6.1284,-6.1308,-6.1289,-6.1314,-6.1309,-6.1308,-6.1178,-6.1163,-6.1329,-6.1329,-6.1329,-6.1329,-6.1328,-6.1328,-6.1229,-6.128,-6.1265,-6.1317,-6.1312,-6.1345,-6.1351,-6.1359,-6.136,-6.1397,-6.1416,-6.1406,-6.14,-6.1419,-6.1438,-6.1432,-6.144,-6.1471,-6.1458,-6.1336,-6.1318,-6.13,-6.1285,-6.1474,-6.1474,-6.1586,-6.1587,-6.1588]},{"header":{"parameterUnit":"m.s-1","parameterCategory":1,"la1":30.2991,"la2":30.254,"lo1":-89.0895,"lo2":-89.0444,"dy":0.0017,"dx":0.0017,"nx":28,"ny":28,"refTime":"2024-03-04T09:00:00:Z","depth":0,"parameterNumber":3,"parameterNumberName":"V-component_of_WINDS"},"data":[0,0,0,0,0,0,0,0,0,0,0,0,0,0,0,0,0,0,0,0,0,0,0,0,0,0,0,0,0,0,0,0,0,0,0,0,0,0,0,0,0,0,0,0,0,0,0,0,0,0,0,0,0,0,0,0,0,0,1.2803,1.2803,0,1.2837,1.2837,1.2838,1.2865,1.2865,1.2866,1.2866,1.2898,1.2898,1.2899,0,0,0,0,0,0,0,0,0,0,0,0,0,1.2762,1.2762,1.2803,1.2803,1.2804,1.2837,1.2837,1.2838,1.2865,1.2865,1.2866,1.2866,1.2898,1.2898,1.2899,0,0,0,0,0,0,0,0,0,0,0,0,0,1.2786,1.2763,1.2803,1.2821,1.2823,1.2837,1.2837,1.2838,1.2865,1.2865,1.2866,1.2866,1.2897,1.2898,1.2899,1.2896,0,0,1.2902,1.2902,0,0,0,0,0,0,0,0,1.2784,1.2787,1.2818,1.282,1.2822,1.2847,1.2834,1.2857,1.2865,1.2849,1.2866,1.2866,1.2881,1.2883,1.2888,1.2897,1.2899,1.2902,1.2902,1.2903,1.2903,0,0,0,0,0,0,0,1.2783,1.2786,1.2816,1.2819,1.2821,1.2828,1.2832,1.2839,1.2862,1.285,1.2853,1.2856,1.2882,1.2887,1.2889,1.2899,1.2902,1.2903,1.2903,1.2904,1.291,1.291,0,0,0,0,0,0,1.2778,1.2784,1.2815,1.2817,1.2804,1.2828,1.2833,1.2839,1.2862,1.2866,1.2856,1.2858,1.2885,1.2888,1.289,1.289,1.2903,1.2904,1.2904,1.2911,1.291,1.291,0,0,0,0,0,0,1.2777,1.2781,1.2814,1.2802,1.2806,1.2829,1.2835,1.2839,1.2845,1.2866,1.287,1.2857,1.2886,1.2889,1.2895,1.2891,1.2904,1.2905,1.2911,1.2911,1.291,1.2887,0,0,0,0,0,0,1.2776,1.278,1.2779,1.2801,1.2807,1.2818,1.2835,1.284,1.2846,1.2849,1.2868,1.2872,1.2887,1.2894,1.2896,1.2893,1.2905,1.2912,1.2911,1.291,1.2889,1.2886,1.2884,0,0,0,0,0,1.2775,1.277,1.2779,1.2782,1.2806,1.2818,1.2821,1.2838,1.2846,1.2845,1.286,1.2871,1.2891,1.2894,1.2897,1.2894,1.2912,1.2911,1.291,1.289,1.2887,1.2884,0,0,0,0,0,0,1.2745,1.2773,1.2783,1.2786,1.2799,1.2822,1.2821,1.2834,1.2845,1.2846,1.2867,1.2871,1.2876,1.2885,1.2888,1.2893,1.2903,1.2903,1.2887,1.2884,1.2882,1.2879,1.2906,0,0,0,0,0,1.2739,1.2747,1.2771,1.2771,1.2777,1.2798,1.2804,1.2817,1.2831,1.2837,1.2851,1.2864,1.2874,1.2879,1.2889,1.289,1.2896,1.289,1.2888,1.2886,1.2885,1.2889,1.2887,1.2907,1.2907,1.2907,0,0,1.2726,1.2743,1.2746,1.2765,1.2777,1.2785,1.2803,1.2809,1.2816,1.2837,1.2845,1.2856,1.2872,1.2877,1.2879,1.2885,1.2881,1.2885,1.2883,1.2884,1.2888,1.2886,1.2884,1.2907,1.2907,1.2907,0,0,1.2707,1.272,1.2723,1.2735,1.2754,1.2768,1.2769,1.2791,1.28,1.2808,1.2825,1.2833,1.2848,1.286,1.2868,1.2857,1.2869,1.2859,1.2847,1.2851,1.2849,1.2848,1.2845,1.2844,1.2859,1.2859,1.2859,0,1.2689,1.2702,1.2722,1.2729,1.2738,1.276,1.2763,1.2774,1.2794,1.28,1.2807,1.2829,1.2841,1.2849,1.2847,1.2852,1.2854,1.2857,1.2848,1.2847,1.2846,1.2844,1.2843,1.2857,1.2858,1.2858,1.2858,0,1.2679,1.2688,1.2688,1.2709,1.2718,1.2723,1.2745,1.2751,1.2764,1.2778,1.2787,1.2803,1.2818,1.2821,1.2832,1.2831,1.2835,1.2844,1.2855,1.2842,1.2841,1.284,1.2856,1.2856,1.2857,1.2857,0,0,1.264,1.2675,1.2675,1.2686,1.271,1.2717,1.2724,1.274,1.2746,1.276,1.2767,1.2781,1.2791,1.28,1.2813,1.2816,1.2809,1.2826,1.2826,1.2823,1.2811,1.2804,1.2803,1.2817,1.2817,1.2817,1.281,0,1.2626,1.264,1.266,1.2668,1.2677,1.27,1.2706,1.2722,1.2736,1.2746,1.2761,1.2771,1.2783,1.2789,1.2793,1.2809,1.2807,1.2809,1.2824,1.2824,1.282,1.2802,1.2794,1.2787,1.281,1.2809,1.2809,0,1.261,1.2625,1.2634,1.266,1.2665,1.267,1.2688,1.2697,1.2716,1.2726,1.2738,1.2753,1.2762,1.2772,1.2786,1.2787,1.2794,1.2803,1.2804,1.2806,1.2816,1.2804,1.2784,1.2784,1.2808,1.2808,1.2808,0,1.2583,1.2605,1.2614,1.2623,1.2653,1.2656,1.2669,1.2688,1.2697,1.2713,1.2719,1.2735,1.2743,1.2755,1.2775,1.278,1.2787,1.2797,1.2796,1.2795,1.2796,1.2795,1.2778,1.2799,1.28,1.28,1.28,0,1.2565,1.257,1.2603,1.2608,1.2615,1.2639,1.2645,1.266,1.2677,1.2686,1.2706,1.2714,1.2739,1.2751,1.2766,1.2776,1.2779,1.2788,1.2792,1.2786,1.2785,1.2791,1.2793,1.2799,1.2799,1.2799,1.2799,0,1.2535,1.2557,1.2569,1.2598,1.2605,1.2609,1.2633,1.264,1.2656,1.2668,1.2672,1.2697,1.2712,1.2733,1.2753,1.2763,1.2771,1.2777,1.2765,1.2768,1.2765,1.2765,1.2751,1.2751,1.2772,1.2772,1.2771,0,1.2522,1.2527,1.2557,1.2565,1.2578,1.259,1.2601,1.2625,1.2635,1.2658,1.2662,1.2679,1.2693,1.2716,1.2736,1.2752,1.2759,1.2753,1.2761,1.2756,1.276,1.276,1.2761,1.2751,1.275,1.275,1.275,0,1.2498,1.2509,1.2524,1.2543,1.2555,1.2571,1.2588,1.2593,1.2621,1.2631,1.2648,1.2659,1.2681,1.2698,1.2717,1.273,1.2745,1.2747,1.2748,1.2742,1.2736,1.274,1.276,1.2747,1.2747,1.2748,1.2748,1.2748,1.2477,1.2483,1.2506,1.2522,1.2538,1.2554,1.2563,1.2581,1.2595,1.2616,1.263,1.2645,1.2666,1.2695,1.2707,1.272,1.2726,1.2726,1.2726,1.2726,1.2725,1.2734,1.2723,1.2723,1.2724,1.2724,1.2724,0,1.2454,1.2471,1.2486,1.251,1.2523,1.2538,1.2558,1.2568,1.2582,1.26,1.2615,1.2635,1.2652,1.2674,1.2693,1.2699,1.2706,1.2703,1.2703,1.2706,1.2718,1.2716,1.2697,1.2697,1.2697,1.2697,1.2697,1.2697,1.2444,1.2457,1.2471,1.2492,1.2509,1.2526,1.2536,1.2551,1.2567,1.2588,1.2603,1.2618,1.2639,1.266,1.2676,1.2683,1.2689,1.2684,1.2692,1.2703,1.2705,1.2707,1.2706,1.2685,1.2685,1.2679,1.2679,1.2679]}]]